EHI
0 0 0 0 0 0 0 0 0 0 0 0 0 0 0 0 0 0 0 0 0 0 0 0 0 0 0 0 0 0 0 0 0 0 0 0 0 0 0 0 0 0 0 0
0 0 0 0 0 0 0 0 0 0 0 0 0 0 0 0 0 0 0 0 0 0 0 0 0 0 0 0 0 0 0 0 0 0 0 0 0 0 0 0 0 0 0 0
0 0 0 0 0 0 0 0 0 0 0 0 0 0 0 0 0 0 0 0 0 0 0 0 0 0 0 0 0 0 0 0 0 0 0 0 0 0 0 0 0 0 0 0
0 0 0 0 0 0 0 0 0 0 0 0 0 0 0 0 0 0 0 0 0 0 0 0 0 0 0 0 0 0 0 0 0 0 0 0 0 0 0 0 0 0 0 0
0 0 0 0 0 0 0 0 0 0 0 0 0 0 0 0 0 0 0 0 0 0 0 0 0 0 0 0 0 0 0 0 0 0 0 0 0 0 0 0 0 0 0 0
0 0 0 0 0 0 0 0 0 0 0 0 0 0 0 0 0 0 0 0 0 0 0 0 0 0 0 0 0 0 0 0 0 0 0 0 0 0 0 0 0 0 0 0
0 0 0 0 0 0 0 0 0 0 0 0 0 0 0 0 0 0 0 0 0 0 0 0 0 0 0 0 0 0 0 0 0 0 0 0 0 0 0 0 0 0 0 0
0 0 0 0 0 0 0 0 0 0 0 0 0 0 0 0 0 0 0 0 0 0 0 0 0 0 0 0 0 0 0 0 0 0 0 0 0 0 0 0 0 0 0 0
0 0 0 0 0 0 0 0 0 0 0 0 0 0 0 0 0 0 0 0 0 0 0 0 0 0 0 0 0 0 0 0 0 0 0 0 0 0 0 0 0 0 0 0
0 0 0 0 0 0 0 0 0 0 0 0 0 0 0 0 0 0 0 0 0 0 0 0 0 0 0 0 0 0 0 0 0 0 0 0 0 0 0 0 0 0 0 0
0 0 0 0 0 0 0 0 0 0 0 0 0 0 0 0 0 0 0 0 0 0 0 0 0 0 0 0 0 0 0 0 0 0 0 0 0 0 0 0 0 0 0 0
0 0 0 0 0 0 0 0 0 0 0 0 0 0 0 0 0 0 0 0 0 0 0 0 0 0 0 0 0 0 0 0 0 0 0 0 0 0 0 0 0 0 0 0
0 0 0 0 0 0 0 0 0 0 0 0 0 0 0 0 0 0 0 0 0 0 0 0 0 0 0 0 0 0 0 0 0 0 0 0 0 0 0 0 0 0 0 0
0 0 0 0 0 0 0 0 0 0 0 0 0 0 0 0 0 0 0 0 0 0 0 0 0 0 0 0 0 0 0 0 0 0 0 0 0 0 0 0 0 0 0 0
0 0 0 0 0 0 0 0 0 0 0 0 0 0 0 0 0 0 0 0 0 0 0 0 0 0 0 0 0 0 0 0 0 0 0 0 0 0 0 0 0 0 0 0
0 0 0 0 0 0 0 0 0 0 0 0 0 0 0 0 0 0 0 0 0 0 0 0 0 0 0 0 0 0 0 0 0 0 0 0 0 0 0 0 0 0 0 0
0 0 0 0 0 0 0 0 0 0 0 0 0 0 0 0 0 0 0 0 0 0 0 0 0 0 0 0 0 0 0 0 0 0 0 0 0 0 0 0 0 0 0 0
0 0 0 0 0 0 0 0 0 0 0 0 0 0 0 0 0 0 0 0 0 0 0 0 0 0 0 0 0 0 0 0 0 0 0 0 0 0 0 0 0 0 0 0
0 0 0 0 0 0 0 0 0 0 0 0 0 0 0 0 0 0 0 0 0 0 0 0 0 0 0 0 0 0 0 0 0 0 0 0 0 0 0 0 0 0 0 0
0 0 0 0 0 0 0 0 0 0 0 0 0 0 0 0 0 0 0 0 0 0 0 0 0 0 0 0 0 0 0 0 0 0 0 0 0 0 0 0 0 0 0 0
0 0 0 0 0 0 0 0 0 0 0 0 0 0 0 0 0 0 0 0 0 0 0 0 0 0 0 0 0 0 0 0 0 0 0 0 0 0 0 0 0 0 0 0
0 0 0 0 0 0 0 0 0 0 0 0 0 0 0 0 0 0 0 0 0 0 0 0 0 0 0 0 0 0 0 0 0 0 0 0 0 0 0 0 0 0 0 0
0 0 0 0 0 0 0 0 0 0 0 0 0 0 0 0 0 0 0 0 0 0 0 0 0 0 0 0 0 0 0 0 0 0 0 0 0 0 0 0 0 0 0 0
0 0 0 0 0 0 0 0 0 0 0 0 0 0 0 0 0 0 0 0 0 0 0 0 0 0 0 0 0 0 0 0 0 0 0 0 0 0 0 0 0 0 0 0
0 0 0 0 0 0 0 0 0 0 0 0 0 0 0 0 0 0 0 0 0 0 0 0 0 0 0 0 0 0 0 0 0 0 0 0 0 0 0 0 0 0 0 0
0 0 0 0 0 0 0 0 0 0 0 0 0 0 0 0 0 0 0 0 0 0 0 0 0 0 0 0 0 0 0 0 0 0 0 0 0 0 0 0 0 0 0 0
0 0 0 0 0 0 0 0 0 0 0 0 0 0 0 0 0 0 0 0 0 0 0 0 0 0 0 0 0 0 0 0 0 0 0 0 0 0 0 0 0 0 0 0
Wind_Speed
5 5 4 5 6 7 6 7 7 7 7 9 7 6 5 3 2 2 2 3 5 5 4 5 5 5 5 5 6 6 6 6 5 5 4 4 5 4 4 4 4 4 4 3
4 4 4 6 8 9 8 7 7 6 9 7 5 3 2 3 3 4 4 4 5 5 5 5 6 6 5 6 6 6 6 6 5 5 5 5 5 5 5 4 3 4 3 4
3 3 2 8 9 9 7 6 8 9 9 4 3 4 5 4 4 5 5 5 6 6 6 6 6 7 7 7 6 6 6 5 5 5 6 6 6 5 5 5 4 4 4 4
1 1 8 9 5 6 7 7 7 6 6 5 6 5 5 5 5 6 5 5 5 5 5 5 5 5 6 6 6 6 6 6 5 5 6 5 6 6 5 4 4 4 4 4
2 4 7 7 4 6 6 6 6 7 6 4 2 1 3 3 4 6 6 6 6 5 5 5 5 6 6 6 6 6 6 6 6 6 7 6 7 6 5 4 4 3 3 4
4 4 7 7 3 3 4 6 5 6 5 3 2 1 5 3 3 3 3 3 4 4 4 4 5 6 7 7 7 7 7 6 6 7 7 7 7 6 4 4 4 4 3 3
6 5 9 7 3 3 5 7 4 5 5 5 5 6 5 3 2 3 3 3 4 4 5 5 5 7 7 7 8 7 6 6 6 6 7 7 6 5 5 5 5 4 3 2
6 6 10 4 4 7 7 3 3 4 4 4 4 3 2 2 3 3 2 3 4 5 4 4 6 7 7 7 6 6 6 7 6 6 6 6 6 5 5 6 5 4 4 2
9 9 6 4 6 5 3 3 3 3 3 4 3 3 2 2 2 3 3 4 4 5 4 4 5 7 8 6 6 7 7 7 6 6 5 6 6 6 5 4 4 4 4 3
5 7 6 5 5 4 3 4 4 3 4 4 4 4 3 3 2 2 3 4 3 5 5 4 4 5 6 6 7 8 8 7 6 6 6 5 5 5 5 5 5 4 4 4
6 6 4 5 5 4 4 3 2 2 3 5 5 4 4 3 3 3 3 3 4 5 6 5 5 4 5 6 7 7 7 6 6 6 6 5 4 4 5 5 6 7 6 5
7 6 5 6 5 4 5 5 5 4 4 4 4 5 4 3 3 3 3 4 4 4 5 4 5 4 5 6 8 8 7 6 5 5 5 5 5 3 2 3 6 7 7 7
8 7 7 7 6 6 6 6 5 5 5 5 4 4 4 3 3 3 3 4 5 5 5 5 5 4 4 6 7 8 8 7 5 5 5 5 5 5 3 2 3 4 6 7
7 5 7 7 6 5 4 5 3 3 4 4 4 4 3 3 3 3 4 5 5 5 5 5 5 5 5 6 7 7 7 7 7 5 5 5 5 4 4 4 3 1 2 5
8 6 7 6 5 4 3 2 2 3 3 3 3 4 4 4 4 3 3 3 4 4 4 5 5 5 4 6 7 7 6 5 5 5 5 5 5 4 4 4 4 3 2 3
6 5 5 5 6 5 3 3 3 4 4 3 3 3 4 4 3 2 3 4 6 5 5 5 5 5 5 6 7 6 5 8 7 6 5 5 5 5 5 4 4 4 4 3
5 5 5 5 6 6 5 5 5 5 4 3 3 3 3 3 2 2 3 4 5 5 5 5 5 4 5 6 7 5 5 6 9 6 5 6 5 5 5 5 4 4 3 4
7 8 7 7 6 5 5 3 3 4 4 4 3 3 4 4 4 3 3 3 4 2 2 3 4 5 5 6 6 5 5 5 5 6 5 5 5 5 5 5 5 4 3 4
7 7 7 7 6 5 4 4 3 3 3 3 4 5 4 4 3 3 3 4 5 3 3 3 5 5 5 6 6 5 6 6 5 5 5 6 6 4 4 4 4 4 4 4
5 5 6 5 4 3 3 3 3 2 2 3 4 3 3 3 3 4 4 4 3 3 4 4 5 4 5 7 7 5 6 7 6 6 5 5 5 5 5 5 5 4 4 4
4 3 3 2 2 2 3 3 3 2 2 3 4 5 4 3 3 4 4 2 1 2 4 5 4 4 5 6 7 5 6 6 6 6 6 6 5 5 5 5 5 5 4 4
3 2 1 0 1 0 0 1 2 2 2 2 3 3 3 3 3 2 2 3 3 3 3 3 3 4 6 7 5 5 6 6 6 5 5 6 6 6 5 5 5 5 4 4
2 1 1 1 1 1 1 1 1 1 2 3 3 4 4 3 3 3 2 2 3 4 3 3 4 6 8 5 4 5 6 6 6 5 5 5 5 6 6 6 5 5 5 4
3 2 2 1 2 3 2 1 2 1 1 1 2 3 4 3 1 1 2 4 4 4 2 4 6 7 6 4 4 5 5 5 5 5 5 5 5 5 5 5 5 5 5 5
2 2 2 2 2 1 0 1 2 2 2 1 1 1 1 2 3 2 2 3 5 4 3 4 7 6 4 4 4 4 4 4 5 5 5 5 5 5 5 5 5 5 5 5
2 2 1 1 0 0 0 1 1 1 1 1 1 1 1 1 2 2 2 3 4 4 3 3 4 4 3 4 4 4 4 5 5 4 5 5 5 5 5 5 6 5 5 5
2 2 2 2 2 1 1 1 1 0 0 1 1 0 1 2 2 2 3 3 3 3 3 3 3 3 3 3 4 4 4 4 4 4 4 4 5 5 5 6 5 5 5 5
Wind_Direction
237 239 229 235 225 200 198 193 197 231 239 258 260 257 256 246 228 187 182 180 180 181 181 182 183 182 180 180 172 167 165 173 181 176 170 160 158 158 150 147 152 150 144 143
254 242 240 255 241 217 218 210 215 235 256 256 262 258 249 225 203 209 208 204 198 187 182 193 189 186 180 182 178 166 169 177 169 162 160 159 159 154 146 146 145 143 150 148
255 267 285 253 229 210 210 205 190 213 234 249 256 243 234 222 212 209 211 205 201 197 197 201 195 185 183 179 167 164 168 168 164 160 159 163 158 149 153 155 149 149 154 149
233 201 233 243 225 202 210 227 211 214 225 222 231 244 240 213 206 215 210 205 205 204 204 200 190 181 171 162 164 166 166 166 165 159 159 155 152 157 159 151 154 158 158 158
177 224 269 284 240 184 188 240 221 212 223 228 246 324 291 236 209 212 205 201 202 200 194 188 181 171 160 160 161 164 169 169 169 164 160 160 162 165 159 149 152 156 154 156
172 201 237 245 234 193 155 249 230 195 204 201 131 180 262 258 221 214 207 197 184 174 169 176 176 161 159 164 166 177 177 171 165 164 164 167 168 161 152 151 155 150 146 158
196 221 257 252 237 137 182 235 215 191 197 185 191 213 246 256 230 208 196 188 170 164 174 183 169 160 165 170 183 183 166 157 158 162 163 161 156 152 148 146 142 144 145 149
180 210 246 241 158 185 215 222 193 198 197 195 213 241 255 233 222 204 190 173 166 167 178 175 165 164 169 183 183 163 156 156 160 160 160 154 148 148 147 146 145 149 145 141
194 216 236 216 212 225 191 194 213 206 220 201 208 232 249 244 237 213 189 179 172 168 168 173 173 173 178 182 161 155 154 160 161 158 154 150 152 152 146 151 155 161 159 165
234 250 249 251 249 243 224 221 229 221 219 206 212 221 227 236 236 220 196 183 171 160 167 182 183 181 181 165 158 156 159 160 156 153 153 150 154 159 161 166 167 169 172 176
246 265 275 257 244 248 259 253 247 255 235 217 206 213 212 223 228 217 198 183 175 174 179 186 181 181 170 161 156 157 160 160 159 158 157 157 158 167 175 184 183 179 186 180
233 234 228 249 256 256 251 250 238 239 251 243 209 207 209 218 219 209 195 179 175 179 178 177 171 175 173 167 161 158 160 164 164 160 159 157 152 134 125 166 181 183 175 169
244 257 251 258 265 260 252 250 240 227 223 233 227 203 200 211 208 201 190 181 183 183 179 171 165 171 175 167 163 163 166 167 165 164 163 162 161 159 150 98 120 159 169 168
250 259 268 265 261 265 254 249 249 247 239 227 214 198 190 194 194 195 198 196 191 178 171 167 164 177 178 164 160 162 161 165 163 166 165 164 166 164 159 155 147 122 139 157
256 248 250 261 262 265 258 242 234 241 245 237 200 187 182 185 199 213 208 187 169 166 169 167 167 178 171 163 160 160 159 162 161 158 156 154 151 149 149 150 148 140 119 122
266 267 258 257 261 258 244 228 227 239 232 221 198 196 195 191 191 198 192 168 161 175 184 178 182 179 168 162 156 154 157 158 152 148 147 146 148 148 149 150 148 150 154 152
251 258 257 260 261 257 241 227 219 223 221 214 206 187 170 159 159 182 194 179 175 180 181 181 183 169 163 160 155 153 152 154 150 146 152 155 155 156 157 158 160 162 164 162
236 244 245 240 242 244 250 243 224 218 214 213 193 170 172 173 183 197 188 152 134 141 174 179 170 159 156 155 150 149 150 153 155 155 153 154 154 155 156 158 161 158 148 151
249 250 252 251 244 229 228 235 230 223 215 183 175 183 191 192 191 186 160 148 152 171 202 174 161 156 155 158 147 146 149 150 151 152 153 153 151 152 154 157 161 161 157 150
270 259 255 255 243 219 219 223 211 214 210 176 172 172 179 194 184 166 157 169 188 193 184 169 160 158 156 158 147 149 153 155 154 153 152 156 159 159 160 161 161 159 156 155
302 285 260 240 236 231 214 201 188 197 200 176 176 180 182 188 171 156 153 169 211 164 163 157 155 161 158 157 152 152 155 156 156 159 160 162 162 161 163 165 163 162 160 156
317 305 282 210 153 222 272 185 175 172 170 170 173 160 153 167 159 146 167 184 182 163 152 156 161 165 159 152 152 154 156 156 156 157 160 163 165 166 166 166 165 163 160 158
343 359 56 106 130 130 58 56 111 145 160 169 171 168 168 174 170 164 184 193 164 160 147 161 166 162 156 149 152 155 156 156 157 160 163 167 170 169 167 165 164 161 160 160
359 5 15 47 80 85 65 14 23 40 72 170 179 171 161 152 157 190 174 165 159 149 142 157 156 156 148 143 147 150 154 155 156 158 160 161 162 160 160 160 160 159 158 158
5 14 35 59 69 69 68 51 42 37 39 40 57 91 152 161 168 167 148 154 148 134 130 150 150 147 142 144 149 151 153 158 158 157 159 159 160 158 160 159 160 161 161 162
6 10 11 17 69 173 136 105 91 73 85 74 44 41 75 97 122 137 137 139 141 135 131 141 147 142 144 146 145 147 149 154 153 155 156 157 157 157 158 160 159 161 161 159
14 14 19 22 15 21 69 105 119 113 128 139 140 91 97 105 113 117 116 121 124 118 119 128 136 137 136 134 133 134 136 136 139 146 148 151 154 158 160 159 158 156 155 156